| time (UTC) | temp F | wind direction | speed knots | gust knots | rain 1hr in | rain 24hr in | rain mn in | humidity % | barometer mb |
| 20260504081537 | 57 | 0 | 0.0 | 4.3 | 0.00 | 0.00 | 0.00 | 41 | 998.4 |
| 20260504081021 | 57 | 180 | 0.9 | 5.2 | 0.00 | 0.00 | 0.00 | 40 | 998.5 |
| 20260504080519 | 57 | 138 | 0.9 | 5.2 | 0.00 | 0.00 | 0.00 | 40 | 998.5 |
| 20260504050522 | 54 | 0 | 0.0 | 1.7 | 0.00 | 0.00 | 0.00 | 52 | 1001.8 |
| 20260504045521 | 54 | 0 | 0.0 | 0.9 | 0.00 | 0.00 | 0.00 | 49 | 1002.0 |
| 20260504045020 | 54 | 0 | 0.0 | 0.9 | 0.00 | 0.00 | 0.00 | 50 | 1002.1 |
| 20260504044536 | 54 | 0 | 0.0 | 0.0 | 0.00 | 0.00 | 0.00 | 49 | 1002.3 |
| 20260504044020 | 54 | 0 | 0.0 | 0.0 | 0.00 | 0.00 | 0.00 | 50 | 1002.3 |
| 20260504043522 | 54 | 0 | 0.0 | 0.0 | 0.00 | 0.00 | 0.00 | 53 | 1002.4 |
| 20260504043036 | 54 | 0 | 0.0 | 0.0 | 0.00 | 0.00 | 0.00 | 52 | 1002.5 |
| 20260504042521 | 54 | 0 | 0.0 | 0.0 | 0.00 | 0.00 | 0.00 | 51 | 1002.6 |
| 20260504042020 | 54 | 0 | 0.0 | 0.0 | 0.00 | 0.00 | 0.00 | 51 | 1002.6 |
| 20260504041535 | 54 | 0 | 0.0 | 0.0 | 0.00 | 0.00 | 0.00 | 50 | 1002.8 |
| 20260504041019 | 54 | 0 | 0.0 | 0.0 | 0.00 | 0.00 | 0.00 | 50 | 1002.8 |
| 20260504040519 | 54 | 0 | 0.0 | 0.0 | 0.00 | 0.00 | 0.00 | 49 | 1002.9 |
| 20260504040041 | 54 | 0 | 0.0 | 0.0 | 0.00 | 0.00 | 0.00 | 50 | 1003.0 |
| 20260504035522 | 54 | 0 | 0.0 | 0.0 | 0.00 | 0.00 | 0.00 | 50 | 1003.2 |
| 20260504035018 | 54 | 0 | 0.0 | 0.0 | 0.00 | 0.00 | 0.00 | 49 | 1003.3 |
| 20260504034536 | 54 | 0 | 0.0 | 0.0 | 0.00 | 0.00 | 0.00 | 51 | 1003.3 |
| 20260504034019 | 54 | 0 | 0.0 | 0.0 | 0.00 | 0.00 | 0.00 | 51 | 1003.4 |
| 20260504033519 | 54 | 0 | 0.0 | 0.0 | 0.00 | 0.00 | 0.00 | 50 | 1003.6 |
| 20260504033048 | 55 | 0 | 0.0 | 0.0 | 0.00 | 0.00 | 0.00 | 49 | 1003.8 |
| 20260504032520 | 55 | 0 | 0.0 | 0.0 | 0.00 | 0.00 | 0.00 | 49 | 1003.9 |
| 20260504032021 | 55 | 0 | 0.0 | 0.0 | 0.00 | 0.00 | 0.00 | 49 | 1003.9 |
| 20260504031536 | 55 | 0 | 0.0 | 0.0 | 0.00 | 0.00 | 0.00 | 46 | 1004.0 |
| 20260504031019 | 55 | 0 | 0.0 | 0.0 | 0.00 | 0.00 | 0.00 | 47 | 1004.1 |
| 20260504030519 | 56 | 0 | 0.0 | 0.0 | 0.00 | 0.00 | 0.00 | 46 | 1004.2 |
| 20260504030036 | 56 | 0 | 0.0 | 0.0 | 0.00 | 0.00 | 0.00 | 45 | 1004.2 |
| 20260504025520 | 56 | 0 | 0.0 | 0.0 | 0.00 | 0.00 | 0.00 | 44 | 1004.2 |
| 20260504025022 | 56 | 0 | 0.0 | 0.0 | 0.00 | 0.00 | 0.00 | 43 | 1004.2 |
| 20260504024543 | 57 | 0 | 0.0 | 0.0 | 0.00 | 0.00 | 0.00 | 42 | 1004.3 |
| 20260504024022 | 57 | 0 | 0.0 | 0.0 | 0.00 | 0.00 | 0.00 | 42 | 1004.2 |
| 20260504023521 | 57 | 0 | 0.0 | 0.0 | 0.00 | 0.00 | 0.00 | 42 | 1004.3 |
| 20260504023044 | 58 | 0 | 0.0 | 0.0 | 0.00 | 0.00 | 0.00 | 40 | 1004.2 |
| 20260504022521 | 58 | 0 | 0.0 | 0.0 | 0.00 | 0.00 | 0.00 | 39 | 1004.3 |
| 20260504022020 | 58 | 0 | 0.0 | 0.0 | 0.00 | 0.00 | 0.00 | 39 | 1004.2 |
| 20260504021541 | 59 | 0 | 0.0 | 0.0 | 0.00 | 0.00 | 0.00 | 38 | 1004.3 |
| 20260504021019 | 59 | 0 | 0.0 | 0.0 | 0.00 | 0.00 | 0.00 | 37 | 1004.2 |
| 20260504020520 | 59 | 0 | 0.0 | 0.0 | 0.00 | 0.00 | 0.00 | 37 | 1004.3 |
| 20260504020035 | 60 | 0 | 0.0 | 0.0 | 0.00 | 0.00 | 0.00 | 38 | 1004.3 |
| 20260504015521 | 60 | 0 | 0.0 | 0.0 | 0.00 | 0.00 | 0.00 | 35 | 1004.2 |
| 20260504015022 | 61 | 0 | 0.0 | 0.0 | 0.00 | 0.00 | 0.00 | 34 | 1004.2 |
| 20260504014535 | 62 | 0 | 0.0 | 0.0 | 0.00 | 0.00 | 0.00 | 34 | 1004.2 |
| 20260504014019 | 62 | 0 | 0.0 | 0.0 | 0.00 | 0.00 | 0.00 | 34 | 1004.3 |
| 20260504013520 | 63 | 0 | 0.0 | 0.0 | 0.00 | 0.00 | 0.00 | 32 | 1004.3 |
| 20260504013043 | 63 | 0 | 0.0 | 0.0 | 0.00 | 0.00 | 0.00 | 30 | 1004.4 |
| 20260504012521 | 64 | 0 | 0.0 | 0.0 | 0.00 | 0.00 | 0.00 | 32 | 1004.4 |
| 20260504012020 | 65 | 0 | 0.0 | 0.0 | 0.00 | 0.00 | 0.00 | 29 | 1004.3 |
| 20260504011540 | 65 | 0 | 0.0 | 0.9 | 0.00 | 0.00 | 0.00 | 28 | 1004.4 |
| 20260504011019 | 66 | 0 | 0.0 | 3.5 | 0.00 | 0.00 | 0.00 | 29 | 1004.4 |
| 20260504010520 | 66 | 0 | 0.0 | 3.5 | 0.00 | 0.00 | 0.00 | 26 | 1004.5 |
| 20260504010038 | 66 | 242 | 0.9 | 2.6 | 0.00 | 0.00 | 0.00 | 25 | 1004.5 |
| 20260504005521 | 66 | 231 | 0.0 | 3.5 | 0.00 | 0.00 | 0.00 | 26 | 1004.5 |
| 20260504005020 | 67 | 0 | 0.9 | 3.5 | 0.00 | 0.00 | 0.00 | 26 | 1004.6 |
| 20260504004543 | 67 | 244 | 0.9 | 3.5 | 0.00 | 0.00 | 0.00 | 26 | 1004.5 |
| 20260504004019 | 67 | 229 | 0.9 | 3.5 | 0.00 | 0.00 | 0.00 | 26 | 1004.6 |
| 20260504003520 | 67 | 236 | 0.0 | 6.1 | 0.00 | 0.00 | 0.00 | 26 | 1004.6 |
| 20260504003035 | 67 | 240 | 0.0 | 6.1 | 0.00 | 0.00 | 0.00 | 26 | 1004.5 |
| 20260504002519 | 67 | 236 | 0.9 | 3.5 | 0.00 | 0.00 | 0.00 | 26 | 1004.6 |
| 20260504002019 | 67 | 252 | 0.0 | 3.5 | 0.00 | 0.00 | 0.00 | 26 | 1004.7 |
| 20260504001535 | 67 | 164 | 0.9 | 4.3 | 0.00 | 0.00 | 0.00 | 25 | 1004.7 |
| 20260504001022 | 67 | 240 | 0.9 | 4.3 | 0.00 | 0.00 | 0.00 | 25 | 1004.7 |
| 20260504000524 | 67 | 153 | 0.9 | 4.3 | 0.00 | 0.00 | 0.00 | 25 | 1004.6 |
| 20260504000043 | 68 | 0 | 0.0 | 2.6 | 0.00 | 0.00 | 0.00 | 25 | 1004.6 |
| 20260503235521 | 68 | 360 | 0.0 | 3.5 | 0.00 | 0.00 | 0.00 | 25 | 1004.8 |
| 20260503235019 | 68 | 0 | 0.9 | 3.5 | 0.00 | 0.00 | 0.00 | 24 | 1004.8 |
| 20260503234539 | 68 | 260 | 0.9 | 4.3 | 0.00 | 0.00 | 0.00 | 25 | 1004.8 |
| 20260503234020 | 68 | 246 | 1.7 | 4.3 | 0.00 | 0.00 | 0.00 | 24 | 1004.8 |
| 20260503233519 | 69 | 245 | 0.9 | 6.1 | 0.00 | 0.00 | 0.00 | 24 | 1004.8 |
| 20260503233035 | 69 | 234 | 0.9 | 7.0 | 0.00 | 0.00 | 0.00 | 24 | 1004.8 |
| 20260503232519 | 68 | 232 | 0.9 | 7.0 | 0.00 | 0.00 | 0.00 | 24 | 1004.8 |
| 20260503232019 | 69 | 232 | 1.7 | 7.0 | 0.00 | 0.00 | 0.00 | 23 | 1004.8 |
| 20260503231536 | 69 | 249 | 1.7 | 7.0 | 0.00 | 0.00 | 0.00 | 23 | 1005.0 |
| 20260503231022 | 69 | 200 | 1.7 | 6.1 | 0.00 | 0.00 | 0.00 | 23 | 1005.0 |
| 20260503230521 | 69 | 236 | 1.7 | 5.2 | 0.00 | 0.00 | 0.00 | 24 | 1005.1 |
| 20260503230035 | 69 | 233 | 0.9 | 4.3 | 0.00 | 0.00 | 0.00 | 24 | 1005.2 |
| 20260503225521 | 69 | 159 | 1.7 | 4.3 | 0.00 | 0.00 | 0.00 | 23 | 1005.3 |
| 20260503225021 | 69 | 238 | 1.7 | 5.2 | 0.00 | 0.00 | 0.00 | 23 | 1005.3 |
| 20260503224534 | 69 | 235 | 1.7 | 6.1 | 0.00 | 0.00 | 0.00 | 24 | 1005.3 |
| 20260503224021 | 69 | 197 | 0.9 | 8.7 | 0.00 | 0.00 | 0.00 | 23 | 1005.4 |
| 20260503223524 | 69 | 236 | 3.5 | 8.7 | 0.00 | 0.00 | 0.00 | 22 | 1005.4 |
| 20260503223041 | 69 | 222 | 2.6 | 8.7 | 0.00 | 0.00 | 0.00 | 23 | 1005.3 |
| 20260503222519 | 69 | 239 | 3.5 | 8.7 | 0.00 | 0.00 | 0.00 | 22 | 1005.4 |
| 20260503222019 | 69 | 246 | 2.6 | 8.7 | 0.00 | 0.00 | 0.00 | 23 | 1005.5 |
| 20260503221537 | 69 | 241 | 0.9 | 3.5 | 0.00 | 0.00 | 0.00 | 22 | 1005.4 |
| 20260503221022 | 69 | 275 | 0.9 | 3.5 | 0.00 | 0.00 | 0.00 | 24 | 1005.4 |
| 20260503220520 | 69 | 0 | 0.9 | 7.8 | 0.00 | 0.00 | 0.00 | 23 | 1005.5 |
| 20260503220038 | 69 | 275 | 2.6 | 7.8 | 0.00 | 0.00 | 0.00 | 22 | 1005.6 |
| 20260503215521 | 69 | 240 | 1.7 | 4.3 | 0.00 | 0.00 | 0.00 | 24 | 1005.5 |
| 20260503215023 | 69 | 271 | 1.7 | 5.2 | 0.00 | 0.00 | 0.00 | 22 | 1005.7 |
| 20260503214534 | 69 | 234 | 1.7 | 5.2 | 0.00 | 0.00 | 0.00 | 23 | 1005.8 |
| 20260503214021 | 69 | 248 | 1.7 | 6.1 | 0.00 | 0.00 | 0.00 | 22 | 1005.7 |
| 20260503213521 | 69 | 237 | 2.6 | 6.1 | 0.00 | 0.00 | 0.00 | 22 | 1005.7 |
| 20260503213036 | 70 | 217 | 1.7 | 4.3 | 0.00 | 0.00 | 0.00 | 22 | 1005.7 |
| 20260503212520 | 69 | 231 | 0.9 | 5.2 | 0.00 | 0.00 | 0.00 | 23 | 1005.8 |
| 20260503212019 | 69 | 192 | 1.7 | 7.0 | 0.00 | 0.00 | 0.00 | 23 | 1005.9 |
| 20260503211542 | 69 | 236 | 2.6 | 7.0 | 0.00 | 0.00 | 0.00 | 22 | 1005.9 |
| 20260503211022 | 69 | 262 | 2.6 | 6.1 | 0.00 | 0.00 | 0.00 | 22 | 1005.7 |
| 20260503210520 | 69 | 262 | 0.9 | 7.8 | 0.00 | 0.00 | 0.00 | 24 | 1005.8 |
| 20260503210039 | 69 | 229 | 2.6 | 7.8 | 0.00 | 0.00 | 0.00 | 23 | 1006.0 |
| 20260503205526 | 69 | 238 | 2.6 | 7.8 | 0.00 | 0.00 | 0.00 | 23 | 1006.0 |
| 20260503205021 | 68 | 238 | 1.7 | 6.1 | 0.00 | 0.00 | 0.00 | 24 | 1006.1 |
| 20260503204535 | 68 | 232 | 2.6 | 6.1 | 0.00 | 0.00 | 0.00 | 22 | 1006.1 |
| 20260503204019 | 68 | 258 | 2.6 | 7.0 | 0.00 | 0.00 | 0.00 | 23 | 1006.1 |
| 20260503203519 | 68 | 234 | 3.5 | 7.0 | 0.00 | 0.00 | 0.00 | 22 | 1006.1 |
| 20260503203036 | 69 | 221 | 2.6 | 7.0 | 0.00 | 0.00 | 0.00 | 23 | 1006.1 |
| 20260503202520 | 69 | 229 | 1.7 | 5.2 | 0.00 | 0.00 | 0.00 | 24 | 1006.2 |
| 20260503202020 | 68 | 249 | 1.7 | 5.2 | 0.00 | 0.00 | 0.00 | 23 | 1006.1 |
| 20260503201603 | 68 | 0 | 1.7 | 6.1 | 0.00 | 0.00 | 0.00 | 22 | 1006.2 |
| 20260503201020 | 68 | 255 | 1.7 | 6.1 | 0.00 | 0.00 | 0.00 | 25 | 1006.2 |
| 20260503200519 | 68 | 207 | 1.7 | 8.7 | 0.00 | 0.00 | 0.00 | 23 | 1006.5 |
| 20260503200041 | 68 | 227 | 2.6 | 8.7 | 0.00 | 0.00 | 0.00 | 25 | 1006.5 |
| 20260503195521 | 68 | 231 | 3.5 | 8.7 | 0.00 | 0.00 | 0.00 | 24 | 1006.4 |
| 20260503195019 | 68 | 198 | 1.7 | 7.8 | 0.00 | 0.00 | 0.00 | 29 | 1006.5 |
| 20260503194542 | 68 | 221 | 3.5 | 7.8 | 0.00 | 0.00 | 0.00 | 25 | 1006.6 |
| 20260503194020 | 68 | 227 | 0.9 | 6.1 | 0.00 | 0.00 | 0.00 | 28 | 1006.5 |
| 20260503193522 | 68 | 218 | 0.9 | 6.1 | 0.00 | 0.00 | 0.00 | 29 | 1006.6 |
| 20260503193041 | 68 | 221 | 2.6 | 6.1 | 0.00 | 0.00 | 0.00 | 27 | 1006.6 |
| 20260503192518 | 67 | 248 | 2.6 | 8.7 | 0.00 | 0.00 | 0.00 | 27 | 1006.7 |
| 20260503192022 | 68 | 228 | 2.6 | 8.7 | 0.00 | 0.00 | 0.00 | 27 | 1006.7 |
| 20260503191538 | 68 | 230 | 1.7 | 7.0 | 0.00 | 0.00 | 0.00 | 27 | 1006.6 |
| 20260503191023 | 68 | 238 | 0.9 | 5.2 | 0.00 | 0.00 | 0.00 | 28 | 1006.6 |
| 20260503190522 | 67 | 177 | 1.7 | 7.8 | 0.00 | 0.00 | 0.00 | 30 | 1006.7 |
| 20260503190041 | 67 | 205 | 3.5 | 7.8 | 0.00 | 0.00 | 0.00 | 28 | 1006.7 |
| 20260503185519 | 67 | 227 | 2.6 | 7.0 | 0.00 | 0.00 | 0.00 | 29 | 1006.7 |
| 20260503185021 | 67 | 236 | 1.7 | 8.7 | 0.00 | 0.00 | 0.00 | 30 | 1006.6 |
| 20260503184555 | 67 | 276 | 2.6 | 8.7 | 0.00 | 0.00 | 0.00 | 31 | 1006.8 |
| 20260503184019 | 67 | 223 | 1.7 | 7.0 | 0.00 | 0.00 | 0.00 | 29 | 1006.9 |
| 20260503183520 | 67 | 236 | 2.6 | 7.0 | 0.00 | 0.00 | 0.00 | 30 | 1006.9 |
| 20260503183037 | 67 | 224 | 2.6 | 7.0 | 0.00 | 0.00 | 0.00 | 28 | 1006.8 |
| 20260503182523 | 67 | 216 | 0.9 | 5.2 | 0.00 | 0.00 | 0.00 | 31 | 1007.0 |
| 20260503182021 | 67 | 229 | 1.7 | 6.1 | 0.00 | 0.00 | 0.00 | 34 | 1007.1 |
| 20260503181538 | 67 | 212 | 1.7 | 6.1 | 0.00 | 0.00 | 0.00 | 34 | 1007.2 |
| 20260503181020 | 67 | 226 | 2.6 | 7.0 | 0.00 | 0.00 | 0.00 | 34 | 1007.1 |
| 20260503180521 | 67 | 207 | 1.7 | 7.0 | 0.00 | 0.00 | 0.00 | 36 | 1007.1 |
| 20260503180035 | 67 | 232 | 0.9 | 6.1 | 0.00 | 0.00 | 0.00 | 33 | 1007.0 |
| 20260503175521 | 67 | 240 | 2.6 | 7.0 | 0.00 | 0.00 | 0.00 | 34 | 1007.2 |
| 20260503175024 | 66 | 9 | 1.7 | 7.8 | 0.00 | 0.00 | 0.00 | 36 | 1007.2 |
| 20260503174601 | 66 | 243 | 1.7 | 7.8 | 0.00 | 0.00 | 0.00 | 35 | 1007.1 |
| 20260503174019 | 67 | 248 | 2.6 | 5.2 | 0.00 | 0.00 | 0.00 | 37 | 1007.2 |
| 20260503173521 | 66 | 38 | 1.7 | 7.0 | 0.00 | 0.00 | 0.00 | 37 | 1007.2 |
| 20260503173041 | 66 | 236 | 2.6 | 7.0 | 0.00 | 0.00 | 0.00 | 37 | 1007.3 |
| 20260503172522 | 66 | 46 | 0.9 | 5.2 | 0.00 | 0.00 | 0.00 | 39 | 1007.3 |
| 20260503172018 | 66 | 239 | 1.7 | 5.2 | 0.00 | 0.00 | 0.00 | 39 | 1007.5 |
| 20260503171536 | 66 | 246 | 1.7 | 6.1 | 0.00 | 0.00 | 0.00 | 38 | 1007.4 |
| 20260503171023 | 66 | 262 | 1.7 | 6.1 | 0.00 | 0.00 | 0.00 | 37 | 1007.4 |
| 20260503170522 | 66 | 228 | 2.6 | 6.1 | 0.00 | 0.00 | 0.00 | 37 | 1007.3 |
| 20260503150522 | 62 | 252 | 2.6 | 7.0 | 0.00 | 0.00 | 0.00 | 43 | 1007.1 |
| 20260503131021 | 55 | 237 | 0.0 | 2.6 | 0.00 | 0.00 | 0.00 | 51 | 1006.2 |
| 20260503130521 | 55 | 0 | 0.9 | 3.5 | 0.00 | 0.00 | 0.00 | 50 | 1006.3 |
| 20260503110521 | 53 | 0 | 0.0 | 1.7 | 0.00 | 0.00 | 0.00 | 49 | 1005.0 |